New Bern, NC

11:34 PM EST on February 07, 2016 (GMT -0500)
Craven County Regional

Weather History for KEWN - July, 2014

Change the Weather History Date:

Friday, July 4, 2014

  Actual Average Record
Temperature  
Mean Temperature 83 °F 80 °F  
Max Temperature 90 °F 89 °F 95 °F (2012)
Min Temperature 76 °F 71 °F 58 °F (2007)
Degree Days  
Heating Degree Days 0 0  
Month to date heating degree days 0 0  
Since 1 June heating degree days 0 1  
Since 1 July heating degree days 0 0  
Cooling Degree Days 18 15  
Month to date cooling degree days 71 60  
Year to date cooling degree days 853 668  
Since 1 June cooling degree days 492 425  
Growing Degree Days 32 (Base 50)    
Moisture  
Dew Point 70 °F    
Average Humidity 69    
Maximum Humidity 87    
Minimum Humidity 50    
Precipitation  
Precipitation 0.04 in 0.17 in 1.80 in (1979)
Month to date precipitation 0.82 0.69  
Year to date precipitation 22.19 24.67  
Snow  
Snow 0.00 in - - ()
Month to date snowfall 0.0  
Since 1 July snowfall 0.0  
Snow Depth 0.00 in    
Sea Level Pressure  
Sea Level Pressure 29.89 in    
Wind  
Wind Speed 9 mph (WNW)    
Max Wind Speed 28 mph    
Max Gust Speed 40 mph    
Visibility 10 miles    
Events Rain    
T = Trace of Precipitation, MM = Missing Value Source: NWS Daily Summary

Daily Weather History Graph

Daily Weather History Graph

Search for Another Location

Airport or City:

Trip Planner

Search our weather history database for the weather conditions in past years. The results will help you decide how hot, cold, wet, or windy it might be!

Date:

Astronomy

Jul. 04, 2014 Rise Set
Actual Time 5:59 AM EDT 8:25 PM EDT
Civil Twilight 5:29 AM EDT 8:55 PM EDT
Nautical Twilight 4:53 AM EDT 9:31 PM EDT
Astronomical Twilight 4:12 AM EDT 10:11 PM EDT
Moon 12:36 PM EDT (7/4) 12:02 AM EDT (7/4)
Length of Visible Light 15h 25m
Length of Day
14h 26m
Waxing Crescent, 42% of the Moon is Illuminated
Jul 4
Waxing Crescent
Jul 5
First Quarter
Jul 12
Full
Jul 18
Last Quarter
Jul 26
New

Hourly Weather History & Observations

Time (EDT) Temp. Heat Index Dew Point Humidity Pressure Visibility Wind Dir Wind Speed Gust Speed Precip Events Conditions
12:08 AM 77.0 °F - 73.4 °F 89% 29.52 in 3.0 mi NNW 21.9 mph 38.0 mph 0.05 in Rain Rain
12:35 AM 75.2 °F - 71.6 °F 89% 29.52 in 10.0 mi NW 24.2 mph 39.1 mph 0.06 in Rain Light Rain
12:54 AM 75.9 °F - 72.0 °F 87% 29.55 in 5.0 mi NW 26.5 mph 46.0 mph 0.08 in Rain Rain
1:12 AM 77.0 °F - 71.6 °F 83% 29.56 in 10.0 mi NW 23.0 mph 36.8 mph 0.00 in Rain Light Rain
1:42 AM 77.0 °F - 73.4 °F 89% 29.60 in 10.0 mi NW 19.6 mph 33.4 mph 0.00 in   Overcast
1:50 AM 78.8 °F - 73.4 °F 83% 29.61 in 10.0 mi WNW 20.7 mph 29.9 mph 0.00 in   Overcast
1:54 AM 78.1 °F - 73.0 °F 84% 29.62 in 10.0 mi WNW 17.3 mph 29.9 mph 0.00 in   Overcast
2:54 AM 78.1 °F - 73.9 °F 87% 29.69 in 10.0 mi West 18.4 mph 29.9 mph 0.01 in Rain Light Rain
3:26 AM 78.8 °F - 73.4 °F 83% 29.73 in 10.0 mi West 15.0 mph 24.2 mph 0.02 in Rain Light Rain
3:54 AM 78.1 °F - 73.9 °F 87% 29.76 in 10.0 mi West 16.1 mph 25.3 mph 0.03 in Rain Light Rain
4:54 AM 77.0 °F - 72.0 °F 84% 29.82 in 10.0 mi West 16.1 mph 29.9 mph 0.00 in   Overcast
5:36 AM 75.2 °F - 71.6 °F 89% 29.87 in 10.0 mi West 15.0 mph 25.3 mph N/A   Overcast
5:54 AM 75.9 °F - 71.1 °F 85% 29.88 in 10.0 mi West 16.1 mph 23.0 mph N/A   Overcast
6:32 AM 75.2 °F - 69.8 °F 83% 29.91 in 10.0 mi West 15.0 mph 24.2 mph N/A   Scattered Clouds
6:54 AM 75.9 °F - 70.0 °F 82% 29.91 in 10.0 mi West 16.1 mph 20.7 mph N/A   Clear
7:54 AM 78.1 °F - 70.0 °F 76% 29.96 in 10.0 mi WNW 13.8 mph 19.6 mph N/A   Clear
8:21 AM 78.8 °F - 69.8 °F 74% 29.97 in 10.0 mi WNW 12.7 mph - N/A   Mostly Cloudy
8:46 AM 78.8 °F - 69.8 °F 74% 29.98 in 10.0 mi WNW 13.8 mph 18.4 mph N/A   Scattered Clouds
8:54 AM 80.1 °F 82.9 °F 69.1 °F 69% 29.99 in 10.0 mi WNW 9.2 mph 20.7 mph N/A   Scattered Clouds
9:54 AM 82.0 °F 85.5 °F 69.1 °F 65% 30.00 in 10.0 mi WNW 13.8 mph 20.7 mph N/A   Partly Cloudy
10:54 AM 82.9 °F 85.4 °F 66.9 °F 58% 30.01 in 10.0 mi NNW 9.2 mph - N/A   Clear
11:54 AM 84.9 °F 87.1 °F 66.0 °F 53% 30.04 in 10.0 mi NNW 8.1 mph - N/A   Clear
12:54 PM 84.9 °F 87.1 °F 66.0 °F 53% 30.04 in 10.0 mi WSW 4.6 mph - N/A   Mostly Cloudy
1:54 PM 87.1 °F 89.9 °F 66.9 °F 51% 30.04 in 10.0 mi Variable 3.5 mph - N/A   Partly Cloudy
2:54 PM 88.0 °F 92.1 °F 69.1 °F 53% 30.04 in 10.0 mi NNW 8.1 mph - N/A   Scattered Clouds
3:54 PM 90.0 °F 94.5 °F 69.1 °F 50% 30.05 in 10.0 mi West 8.1 mph - N/A   Mostly Cloudy
4:54 PM 88.0 °F 91.4 °F 68.0 °F 51% 30.05 in 10.0 mi West 6.9 mph - N/A   Scattered Clouds
5:54 PM 88.0 °F 91.4 °F 68.0 °F 51% 30.04 in 10.0 mi WNW 5.8 mph - N/A   Clear
6:54 PM 87.1 °F 90.6 °F 68.0 °F 53% 30.06 in 10.0 mi North 3.5 mph - N/A   Clear
7:54 PM 82.9 °F 85.8 °F 68.0 °F 60% 30.08 in 10.0 mi North 5.8 mph - N/A   Clear
8:54 PM 80.1 °F 83.2 °F 70.0 °F 71% 30.09 in 10.0 mi Calm Calm - N/A   Clear
9:54 PM 79.0 °F - 69.1 °F 72% 30.11 in 10.0 mi NNE 4.6 mph - N/A   Clear
10:54 PM 78.1 °F - 69.1 °F 74% 30.12 in 10.0 mi NNE 4.6 mph - N/A   Clear
11:54 PM 78.1 °F - 68.0 °F 71% 30.13 in 10.0 mi NNE 5.8 mph - N/A   Partly Cloudy